When you browse on this site, cookies collect data to enhance your experience and personalize the content and advertising you see.
Visit our Privacy Policy to learn more. By continuing to use the site, you agree to this use of cookies and data.

Stündliche Wetter San Francisco

Heute, 7 August, Freitag

Zeit Temperatur Niederschläge Wind Luftdruck Luftfeuchtigkeit
00:00 +18°C° 0 mm 2 m/S 638 mmHg 82%
01:00 +18°C° 0 mm 2 m/S 638 mmHg 82%
02:00 +18°C° 0 mm 2 m/S 637 mmHg 82%
03:00 +17°C° 0 mm 2 m/S 637 mmHg 82%
04:00 +17°C° 0 mm 2 m/S 637 mmHg 82%
05:00 +19°C° 0 mm 1 m/S 637 mmHg 80%
06:00 +19°C° 0 mm 1 m/S 638 mmHg 79%
07:00 +20°C° 0 mm 1 m/S 638 mmHg 78%
08:00 +22°C° 0 mm 1 m/S 639 mmHg 71%
09:00 +24°C° 0 mm 1 m/S 640 mmHg 65%
10:00 +26°C° 0 mm 1 m/S 641 mmHg 58%
11:00 +26°C° 0.2 mm 1 m/S 640 mmHg 60%
12:00 +26°C° 0.2 mm 2 m/S 639 mmHg 62%
13:00 +26°C° 0.2 mm 2 m/S 639 mmHg 63%
14:00 +25°C° 0.2 mm 2 m/S 638 mmHg 67%
15:00 +24°C° 0.2 mm 2 m/S 637 mmHg 71%
16:00 +23°C° 0.2 mm 2 m/S 637 mmHg 75%
17:00 +21°C° 0 mm 2 m/S 637 mmHg 78%
18:00 +20°C° 0 mm 2 m/S 637 mmHg 80%
19:00 +20°C° 0 mm 2 m/S 637 mmHg 83%
20:00 +19°C° 0 mm 2 m/S 638 mmHg 82%
21:00 +19°C° 0 mm 2 m/S 638 mmHg 81%
22:00 +19°C° 0 mm 2 m/S 639 mmHg 81%
23:00 +19°C° 0 mm 2 m/S 639 mmHg 80%

Morgen, 8 August, Samstag

Zeit Temperatur Niederschläge Wind Luftdruck Luftfeuchtigkeit
00:00 +20°C° 0 mm 1 m/S 638 mmHg 80%
01:00 +20°C° 0 mm 1 m/S 638 mmHg 80%
02:00 +20°C° 0 mm 1 m/S 638 mmHg 81%
03:00 +20°C° 0 mm 1 m/S 638 mmHg 81%
04:00 +20°C° 0 mm 1 m/S 638 mmHg 81%
05:00 +20°C° 0 mm 1 m/S 638 mmHg 81%
06:00 +20°C° 0 mm 1 m/S 638 mmHg 81%
07:00 +21°C° 0 mm 1 m/S 639 mmHg 81%
08:00 +22°C° 0.1 mm 1 m/S 639 mmHg 77%
09:00 +23°C° 0.1 mm 1 m/S 640 mmHg 74%
10:00 +23°C° 0.1 mm 1 m/S 640 mmHg 70%
11:00 +25°C° 0.2 mm 1 m/S 640 mmHg 68%
12:00 +26°C° 0.2 mm 2 m/S 640 mmHg 65%
13:00 +27°C° 0.2 mm 2 m/S 639 mmHg 62%
14:00 +26°C° 0.3 mm 2 m/S 639 mmHg 61%
15:00 +26°C° 0.3 mm 2 m/S 638 mmHg 61%
16:00 +26°C° 0.3 mm 2 m/S 638 mmHg 61%
17:00 +24°C° 0 mm 2 m/S 638 mmHg 67%
18:00 +21°C° 0 mm 2 m/S 637 mmHg 74%
19:00 +19°C° 0 mm 2 m/S 637 mmHg 81%
20:00 +19°C° 0 mm 2 m/S 638 mmHg 80%
21:00 +19°C° 0 mm 2 m/S 638 mmHg 79%
22:00 +19°C° 0 mm 2 m/S 639 mmHg 78%
23:00 +19°C° 0 mm 2 m/S 639 mmHg 78%

übermorgen, 9 August, Sonntag

Zeit Temperatur Niederschläge Wind Luftdruck Luftfeuchtigkeit
00:00 +19°C° 0 mm 2 m/S 638 mmHg 78%
01:00 +20°C° 0 mm 1 m/S 638 mmHg 78%
02:00 +19°C° 0 mm 2 m/S 638 mmHg 79%
03:00 +18°C° 0 mm 2 m/S 637 mmHg 80%
04:00 +18°C° 0 mm 2 m/S 637 mmHg 81%
05:00 +20°C° 0 mm 1 m/S 638 mmHg 79%
06:00 +20°C° 0 mm 1 m/S 638 mmHg 78%
07:00 +21°C° 0 mm 1 m/S 638 mmHg 76%
08:00 +23°C° 0 mm 1 m/S 639 mmHg 70%
09:00 +25°C° 0 mm 1 m/S 640 mmHg 63%
10:00 +27°C° 0 mm 1 m/S 641 mmHg 56%
11:00 +27°C° 0.1 mm 1 m/S 640 mmHg 56%
12:00 +27°C° 0.1 mm 2 m/S 640 mmHg 56%
13:00 +27°C° 0.1 mm 2 m/S 639 mmHg 56%
14:00 +27°C° 0.1 mm 1 m/S 638 mmHg 56%
15:00 +27°C° 0.1 mm 1 m/S 638 mmHg 56%
16:00 +27°C° 0.1 mm 1 m/S 637 mmHg 56%
17:00 +25°C° 0.1 mm 1 m/S 637 mmHg 63%
18:00 +23°C° 0.1 mm 1 m/S 637 mmHg 71%
19:00 +20°C° 0.1 mm 2 m/S 636 mmHg 78%
20:00 +20°C° 0 mm 2 m/S 637 mmHg 79%
21:00 +19°C° 0 mm 2 m/S 637 mmHg 79%
22:00 +19°C° 0 mm 2 m/S 638 mmHg 80%
23:00 +18°C° 0 mm 2 m/S 637 mmHg 80%

10 August, Montag

Zeit Temperatur Niederschläge Wind Luftdruck Luftfeuchtigkeit
00:00 +18°C° 0 mm 2 m/S 637 mmHg 80%
01:00 +18°C° 0 mm 2 m/S 637 mmHg 81%
02:00 +17°C° 0 mm 2 m/S 637 mmHg 81%
03:00 +17°C° 0 mm 2 m/S 636 mmHg 81%
04:00 +17°C° 0 mm 2 m/S 636 mmHg 81%
05:00 +18°C° 0 mm 2 m/S 636 mmHg 79%
06:00 +18°C° 0 mm 2 m/S 637 mmHg 77%
07:00 +20°C° 0 mm 1 m/S 637 mmHg 75%
08:00 +22°C° 0 mm 1 m/S 638 mmHg 68%
09:00 +25°C° 0 mm 1 m/S 639 mmHg 60%
10:00 +27°C° 0 mm 1 m/S 640 mmHg 52%
11:00 +27°C° 0.1 mm 1 m/S 639 mmHg 52%
12:00 +28°C° 0.1 mm 1 m/S 638 mmHg 52%
13:00 +28°C° 0.1 mm 1 m/S 637 mmHg 51%
14:00 +28°C° 0.1 mm 2 m/S 637 mmHg 53%
15:00 +28°C° 0.1 mm 2 m/S 636 mmHg 55%
16:00 +27°C° 0.1 mm 2 m/S 635 mmHg 57%
17:00 +25°C° 0.2 mm 1 m/S 635 mmHg 65%
18:00 +24°C° 0.2 mm 1 m/S 635 mmHg 72%
19:00 +22°C° 0.2 mm 1 m/S 635 mmHg 79%
20:00 +22°C° 0.2 mm 1 m/S 636 mmHg 79%
21:00 +21°C° 0.2 mm 1 m/S 637 mmHg 80%
22:00 +21°C° 0.2 mm 1 m/S 637 mmHg 80%
23:00 +20°C° 0 mm 1 m/S 637 mmHg 81%

11 August, Dienstag

Zeit Temperatur Niederschläge Wind Luftdruck Luftfeuchtigkeit
00:00 +20°C° 0 mm 1 m/S 636 mmHg 82%
01:00 +20°C° 0 mm 1 m/S 636 mmHg 83%
02:00 +19°C° 0.1 mm 1 m/S 636 mmHg 83%
03:00 +19°C° 0.1 mm 1 m/S 635 mmHg 82%
04:00 +19°C° 0.1 mm 1 m/S 635 mmHg 82%
05:00 +19°C° 0 mm 1 m/S 636 mmHg 80%
06:00 +20°C° 0 mm 1 m/S 636 mmHg 79%
07:00 +20°C° 0 mm 1 m/S 637 mmHg 77%
08:00 +23°C° 0 mm 1 m/S 637 mmHg 70%
09:00 +25°C° 0 mm 1 m/S 638 mmHg 62%
10:00 +27°C° 0 mm 1 m/S 639 mmHg 55%
11:00 +27°C° 0.2 mm 1 m/S 638 mmHg 58%
12:00 +27°C° 0.2 mm 2 m/S 637 mmHg 60%
13:00 +27°C° 0.2 mm 2 m/S 636 mmHg 62%
14:00 +27°C° 0.7 mm 2 m/S 636 mmHg 65%
15:00 +26°C° 0.7 mm 1 m/S 635 mmHg 67%
16:00 +26°C° 0.7 mm 1 m/S 635 mmHg 69%
17:00 +25°C° 0.8 mm 1 m/S 635 mmHg 74%
18:00 +23°C° 0.8 mm 1 m/S 635 mmHg 78%
19:00 +22°C° 0.8 mm 1 m/S 635 mmHg 83%
20:00 +21°C° 0.3 mm 1 m/S 635 mmHg 83%
21:00 +21°C° 0.3 mm 1 m/S 636 mmHg 84%
22:00 +19°C° 0.3 mm 2 m/S 636 mmHg 84%
23:00 +19°C° 0.2 mm 2 m/S 636 mmHg 85%

12 August, Mittwoch

Zeit Temperatur Niederschläge Wind Luftdruck Luftfeuchtigkeit
00:00 +19°C° 0.2 mm 1 m/S 636 mmHg 86%
01:00 +19°C° 0.2 mm 1 m/S 635 mmHg 87%
02:00 +19°C° 0.2 mm 1 m/S 635 mmHg 87%
03:00 +19°C° 0.2 mm 1 m/S 635 mmHg 87%
04:00 +18°C° 0.2 mm 1 m/S 635 mmHg 86%
05:00 +19°C° 0.1 mm 1 m/S 635 mmHg 85%
06:00 +20°C° 0.1 mm 1 m/S 636 mmHg 84%
07:00 +20°C° 0.1 mm 1 m/S 637 mmHg 82%
08:00 +22°C° 0.1 mm 1 m/S 637 mmHg 77%
09:00 +24°C° 0.1 mm 1 m/S 638 mmHg 71%
10:00 +26°C° 0.1 mm 1 m/S 639 mmHg 65%
11:00 +26°C° 0.9 mm 1 m/S 638 mmHg 71%
12:00 +25°C° 0.9 mm 1 m/S 637 mmHg 77%
13:00 +24°C° 0.9 mm 1 m/S 636 mmHg 83%
14:00 +24°C° 1.5 mm 1 m/S 635 mmHg 84%
15:00 +24°C° 1.5 mm 1 m/S 635 mmHg 85%
16:00 +21°C° 1.5 mm 0 m/S 634 mmHg 85%
17:00 +21°C° 0.7 mm 0 m/S 634 mmHg 87%
18:00 +22°C° 0.7 mm 1 m/S 635 mmHg 89%
19:00 +21°C° 0.7 mm 1 m/S 635 mmHg 91%
20:00 +20°C° 0.3 mm 1 m/S 635 mmHg 90%
21:00 +20°C° 0.3 mm 1 m/S 636 mmHg 90%
22:00 +20°C° 0.3 mm 1 m/S 636 mmHg 89%
23:00 +20°C° 0.4 mm 1 m/S 636 mmHg 90%
Mehr zeigen